When you browse on this site, cookies collect data to enhance your experience and personalize the content and advertising you see.
Visit our Privacy Policy to learn more. By continuing to use the site, you agree to this use of cookies and data.
  • In Lithuania
  • List of Countries
  • For 7 days
  • Water Temperature
  • Satellite Maps
  • Weather Map
  • Weather Widgets
  • user-avatar
    Login

    Hourly Weather Albany

    Today, 20 May, Monday

    Time Temperature Precipitation Wind Pressure Humidity
    00:00 +14°C° 0 mm 5 mps 754 mmHg 45%
    01:00 +14°C° 0 mm 6 mps 754 mmHg 44%
    02:00 +15°C° 0 mm 7 mps 753 mmHg 43%
    03:00 +14°C° 0.3 mm 7 mps 753 mmHg 54%
    04:00 +14°C° 0.3 mm 7 mps 753 mmHg 66%
    05:00 +14°C° 0.3 mm 7 mps 753 mmHg 77%
    06:00 +14°C° 0.2 mm 6 mps 754 mmHg 81%
    07:00 +15°C° 0.2 mm 6 mps 754 mmHg 84%
    08:00 +15°C° 0.2 mm 6 mps 754 mmHg 88%
    09:00 +16°C° 0.1 mm 6 mps 755 mmHg 80%
    10:00 +16°C° 0.1 mm 6 mps 756 mmHg 71%
    11:00 +17°C° 0.1 mm 7 mps 756 mmHg 63%
    12:00 +17°C° 0.1 mm 7 mps 756 mmHg 64%
    13:00 +17°C° 0.1 mm 6 mps 756 mmHg 64%
    14:00 +17°C° 0.1 mm 6 mps 756 mmHg 64%
    15:00 +16°C° 0.1 mm 6 mps 757 mmHg 67%
    16:00 +15°C° 0.1 mm 6 mps 757 mmHg 69%
    17:00 +15°C° 0.1 mm 5 mps 758 mmHg 71%
    18:00 +14°C° 0 mm 5 mps 758 mmHg 73%
    19:00 +13°C° 0 mm 5 mps 759 mmHg 76%
    20:00 +13°C° 0 mm 4 mps 759 mmHg 78%
    21:00 +12°C° 0 mm 4 mps 759 mmHg 79%
    22:00 +12°C° 0 mm 4 mps 760 mmHg 81%
    23:00 +12°C° 0 mm 4 mps 760 mmHg 82%

    Tomorrow, 21 May, Tuesday

    Time Temperature Precipitation Wind Pressure Humidity
    00:00 +11°C° 0 mm 4 mps 760 mmHg 84%
    01:00 +11°C° 0 mm 4 mps 760 mmHg 85%
    02:00 +11°C° 0 mm 4 mps 760 mmHg 86%
    03:00 +10°C° 0 mm 5 mps 760 mmHg 85%
    04:00 +10°C° 0 mm 5 mps 760 mmHg 85%
    05:00 +10°C° 0 mm 5 mps 760 mmHg 84%
    06:00 +10°C° 0 mm 5 mps 761 mmHg 82%
    07:00 +10°C° 0 mm 5 mps 761 mmHg 81%
    08:00 +10°C° 0 mm 5 mps 761 mmHg 79%
    09:00 +13°C° 0 mm 5 mps 762 mmHg 73%
    10:00 +15°C° 0 mm 5 mps 762 mmHg 66%
    11:00 +17°C° 0 mm 5 mps 762 mmHg 60%
    12:00 +17°C° 0.1 mm 5 mps 762 mmHg 61%
    13:00 +19°C° 0.1 mm 5 mps 761 mmHg 63%
    14:00 +19°C° 0.1 mm 4 mps 761 mmHg 65%
    15:00 +18°C° 0.1 mm 4 mps 761 mmHg 69%
    16:00 +17°C° 0.1 mm 3 mps 762 mmHg 74%
    17:00 +16°C° 0.1 mm 3 mps 762 mmHg 79%
    18:00 +15°C° 0.1 mm 2 mps 762 mmHg 82%
    19:00 +15°C° 0.1 mm 2 mps 763 mmHg 84%
    20:00 +14°C° 0.1 mm 1 mps 763 mmHg 87%
    21:00 +14°C° 0 mm 2 mps 763 mmHg 88%
    22:00 +14°C° 0 mm 2 mps 763 mmHg 90%
    23:00 +14°C° 0 mm 2 mps 763 mmHg 91%

    Day after tomorrow, 22 May, Wednesday

    Time Temperature Precipitation Wind Pressure Humidity
    00:00 +13°C° 0 mm 2 mps 763 mmHg 91%
    01:00 +12°C° 0 mm 3 mps 763 mmHg 91%
    02:00 +12°C° 0 mm 3 mps 763 mmHg 91%
    03:00 +12°C° 0 mm 3 mps 763 mmHg 91%
    04:00 +11°C° 0 mm 3 mps 762 mmHg 90%
    05:00 +11°C° 0 mm 3 mps 762 mmHg 90%
    06:00 +11°C° 0 mm 3 mps 762 mmHg 88%
    07:00 +11°C° 0 mm 3 mps 763 mmHg 86%
    08:00 +12°C° 0 mm 3 mps 763 mmHg 85%
    09:00 +14°C° 0 mm 3 mps 763 mmHg 74%
    10:00 +17°C° 0 mm 3 mps 763 mmHg 62%
    11:00 +19°C° 0 mm 3 mps 762 mmHg 51%
    12:00 +20°C° 0 mm 3 mps 762 mmHg 48%
    13:00 +21°C° 0 mm 2 mps 761 mmHg 45%
    14:00 +22°C° 0 mm 1 mps 760 mmHg 42%
    15:00 +20°C° 0 mm 2 mps 760 mmHg 47%
    16:00 +19°C° 0 mm 2 mps 760 mmHg 52%
    17:00 +17°C° 0 mm 2 mps 760 mmHg 57%
    18:00 +16°C° 0 mm 1 mps 761 mmHg 62%
    19:00 +16°C° 0 mm 1 mps 761 mmHg 67%
    20:00 +15°C° 0 mm 1 mps 761 mmHg 72%
    21:00 +15°C° 0.1 mm 1 mps 761 mmHg 74%
    22:00 +15°C° 0.1 mm 1 mps 761 mmHg 75%
    23:00 +15°C° 0.1 mm 1 mps 761 mmHg 77%

    23 May, Thursday

    Time Temperature Precipitation Wind Pressure Humidity
    00:00 +14°C° 0 mm 2 mps 761 mmHg 79%
    01:00 +14°C° 0 mm 2 mps 761 mmHg 82%
    02:00 +14°C° 0 mm 2 mps 760 mmHg 84%
    03:00 +12°C° 0 mm 3 mps 760 mmHg 85%
    04:00 +12°C° 0 mm 3 mps 760 mmHg 87%
    05:00 +12°C° 0 mm 3 mps 760 mmHg 88%
    06:00 +12°C° 0 mm 3 mps 761 mmHg 88%
    07:00 +12°C° 0 mm 4 mps 761 mmHg 87%
    08:00 +13°C° 0 mm 4 mps 761 mmHg 87%
    09:00 +14°C° 0 mm 4 mps 761 mmHg 80%
    10:00 +17°C° 0 mm 4 mps 762 mmHg 74%
    11:00 +19°C° 0 mm 4 mps 762 mmHg 67%
    12:00 +18°C° 0.2 mm 4 mps 761 mmHg 68%
    13:00 +18°C° 0.2 mm 4 mps 761 mmHg 70%
    14:00 +18°C° 0.2 mm 4 mps 761 mmHg 72%
    15:00 +17°C° 0 mm 4 mps 761 mmHg 73%
    16:00 +17°C° 0 mm 4 mps 761 mmHg 75%
    17:00 +16°C° 0 mm 3 mps 761 mmHg 77%
    18:00 +16°C° 0 mm 3 mps 762 mmHg 79%
    19:00 +14°C° 0 mm 3 mps 762 mmHg 81%
    20:00 +13°C° 0 mm 3 mps 762 mmHg 83%
    21:00 +13°C° 0 mm 4 mps 762 mmHg 84%
    22:00 +13°C° 0 mm 4 mps 762 mmHg 85%
    23:00 +12°C° 0 mm 4 mps 762 mmHg 86%

    24 May, Friday

    Time Temperature Precipitation Wind Pressure Humidity
    00:00 +12°C° 0 mm 4 mps 762 mmHg 87%
    01:00 +12°C° 0 mm 4 mps 762 mmHg 87%
    02:00 +12°C° 0 mm 4 mps 762 mmHg 87%
    03:00 +12°C° 0 mm 4 mps 762 mmHg 88%
    04:00 +12°C° 0 mm 5 mps 762 mmHg 89%
    05:00 +12°C° 0 mm 5 mps 762 mmHg 89%
    06:00 +12°C° 0 mm 5 mps 762 mmHg 89%
    07:00 +12°C° 0 mm 5 mps 762 mmHg 89%
    08:00 +13°C° 0 mm 5 mps 762 mmHg 89%
    09:00 +15°C° 0 mm 5 mps 762 mmHg 81%
    10:00 +16°C° 0 mm 6 mps 762 mmHg 73%
    11:00 +19°C° 0 mm 6 mps 762 mmHg 65%
    12:00 +20°C° 0.1 mm 6 mps 761 mmHg 65%
    13:00 +20°C° 0.1 mm 6 mps 761 mmHg 64%
    14:00 +20°C° 0.1 mm 7 mps 760 mmHg 64%
    15:00 +19°C° 0.2 mm 6 mps 761 mmHg 68%
    16:00 +17°C° 0.2 mm 6 mps 761 mmHg 73%
    17:00 +16°C° 0.2 mm 5 mps 761 mmHg 78%
    18:00 +16°C° 0.3 mm 5 mps 761 mmHg 81%
    19:00 +15°C° 0.3 mm 5 mps 762 mmHg 84%
    20:00 +14°C° 0.3 mm 5 mps 762 mmHg 87%
    21:00 +14°C° 0.2 mm 5 mps 763 mmHg 87%
    22:00 +14°C° 0.2 mm 5 mps 763 mmHg 86%
    23:00 +14°C° 0.2 mm 5 mps 763 mmHg 85%

    25 May, Saturday

    Time Temperature Precipitation Wind Pressure Humidity
    00:00 +14°C° 0 mm 4 mps 763 mmHg 84%
    01:00 +13°C° 0 mm 4 mps 763 mmHg 83%
    02:00 +13°C° 0 mm 4 mps 763 mmHg 82%
    03:00 +12°C° 0 mm 4 mps 763 mmHg 83%
    04:00 +12°C° 0 mm 4 mps 763 mmHg 84%
    05:00 +12°C° 0 mm 4 mps 763 mmHg 85%
    06:00 +12°C° 0 mm 4 mps 764 mmHg 83%
    07:00 +13°C° 0 mm 4 mps 765 mmHg 82%
    08:00 +13°C° 0 mm 4 mps 765 mmHg 81%
    09:00 +14°C° 0.1 mm 4 mps 765 mmHg 78%
    10:00 +15°C° 0.1 mm 4 mps 765 mmHg 74%
    11:00 +15°C° 0.1 mm 4 mps 766 mmHg 71%
    12:00 +15°C° 0 mm 4 mps 765 mmHg 68%
    13:00 +17°C° 0 mm 4 mps 765 mmHg 65%
    14:00 +17°C° 0 mm 4 mps 765 mmHg 63%
    15:00 +16°C° 0 mm 3 mps 765 mmHg 64%
    16:00 +16°C° 0 mm 3 mps 766 mmHg 66%
    17:00 +15°C° 0 mm 2 mps 766 mmHg 67%
    18:00 +15°C° 0 mm 2 mps 766 mmHg 69%
    19:00 +14°C° 0 mm 2 mps 767 mmHg 70%
    20:00 +14°C° 0 mm 2 mps 767 mmHg 71%
    21:00 +14°C° 0 mm 2 mps 767 mmHg 72%
    22:00 +13°C° 0 mm 2 mps 767 mmHg 73%
    23:00 +13°C° 0 mm 1 mps 767 mmHg 74%
    Show more